[[{"header":{"parameterUnit":"m.s-1","parameterCategory":1,"la1":30.2991,"la2":30.254,"lo1":-89.0895,"lo2":-89.0444,"dy":0.0017,"dx":0.0017,"nx":28,"ny":28,"refTime":"2026-02-26T03:00:00:Z","depth":0,"parameterNumber":2,"parameterNumberName":"U-component_of_WINDS"},"data":[0,0,0,0,0,0,0,0,0,0,0,0,0,0,0,0,0,0,0,0,0,0,0,0,0,0,0,0,0,0,0,0,0,0,0,0,0,0,0,0,0,0,0,0,0,0,0,0,0,0,0,0,0,0,0,0,0,0,0.2311,0.2311,0,0.2289,0.2289,0.2289,0.2258,0.2257,0.2257,0.2256,0.2236,0.2235,0.2235,0,0,0,0,0,0,0,0,0,0,0,0,0,0.2326,0.2326,0.2311,0.2311,0.231,0.2289,0.2289,0.2289,0.2258,0.2257,0.2256,0.2256,0.2236,0.2235,0.2235,0,0,0,0,0,0,0,0,0,0,0,0,0,0.2314,0.2326,0.2311,0.2292,0.229,0.229,0.2289,0.2289,0.2258,0.2257,0.2256,0.2255,0.2236,0.2235,0.2235,0.2252,0,0,0.2235,0.2235,0,0,0,0,0,0,0,0,0.2315,0.2313,0.2295,0.2294,0.2291,0.2275,0.2287,0.2276,0.2258,0.227,0.2256,0.2255,0.225,0.2248,0.2246,0.2251,0.225,0.2235,0.2235,0.2235,0.2235,0,0,0,0,0,0,0,0.2316,0.2314,0.2302,0.2295,0.2293,0.2285,0.2283,0.2285,0.2265,0.2269,0.2267,0.2265,0.2248,0.2246,0.2245,0.2249,0.2235,0.2235,0.2235,0.2235,0.2267,0.2268,0,0,0,0,0,0,0.2319,0.2315,0.2303,0.2302,0.2301,0.2286,0.2283,0.2281,0.2265,0.2261,0.2265,0.2263,0.2247,0.2245,0.2245,0.2263,0.2235,0.2235,0.2235,0.2266,0.2267,0.2268,0,0,0,0,0,0,0.2319,0.2318,0.2304,0.2308,0.2305,0.2286,0.2285,0.2281,0.2279,0.2262,0.2258,0.2267,0.2246,0.2245,0.225,0.2262,0.2235,0.2235,0.2265,0.2266,0.2268,0.23,0,0,0,0,0,0,0.232,0.2319,0.2324,0.2308,0.2305,0.231,0.2286,0.2282,0.2279,0.2276,0.2262,0.2259,0.2245,0.225,0.225,0.2261,0.2235,0.2264,0.2266,0.2267,0.2298,0.2302,0.2306,0,0,0,0,0,0.2321,0.2334,0.2325,0.2323,0.2312,0.231,0.2309,0.2292,0.228,0.2286,0.2275,0.226,0.226,0.2251,0.2251,0.2262,0.2263,0.2265,0.2267,0.2296,0.2301,0.2306,0,0,0,0,0,0,0.2353,0.2332,0.2321,0.233,0.2322,0.2305,0.2312,0.2298,0.2294,0.2292,0.2272,0.2269,0.2277,0.227,0.226,0.2277,0.2259,0.2261,0.2282,0.2287,0.2291,0.2293,0.2235,0,0,0,0,0,0.2361,0.2361,0.2343,0.2352,0.2349,0.2331,0.233,0.2318,0.2309,0.2306,0.2295,0.2288,0.2286,0.2286,0.2284,0.2296,0.2293,0.2304,0.2308,0.2311,0.2314,0.232,0.2325,0.2275,0.2274,0.2274,0,0,0.2378,0.2366,0.2368,0.2358,0.2351,0.2352,0.2329,0.2331,0.2332,0.2306,0.2311,0.2303,0.2293,0.2303,0.2306,0.2297,0.2327,0.2314,0.2317,0.2317,0.2323,0.2328,0.2332,0.2276,0.2276,0.2275,0,0,0.2409,0.24,0.2407,0.24,0.2389,0.2377,0.2379,0.2364,0.2358,0.2362,0.2343,0.2344,0.2342,0.2336,0.2333,0.2362,0.2348,0.2361,0.2383,0.239,0.2394,0.2398,0.2409,0.2413,0.2364,0.2364,0.2364,0,0.2431,0.2432,0.2413,0.2416,0.2413,0.2389,0.2397,0.2391,0.238,0.2379,0.2368,0.2366,0.2357,0.2366,0.2373,0.237,0.2373,0.2363,0.2395,0.2398,0.2401,0.2412,0.2416,0.2365,0.2365,0.2365,0.2365,0,0.246,0.2461,0.2468,0.2458,0.2455,0.2461,0.2443,0.2443,0.2431,0.242,0.2425,0.2415,0.241,0.2411,0.2399,0.2418,0.2412,0.2399,0.2381,0.2408,0.2418,0.2422,0.2368,0.2367,0.2367,0.2366,0,0,0.2512,0.2491,0.2494,0.2489,0.2475,0.2476,0.248,0.2475,0.2476,0.2469,0.2473,0.2472,0.2459,0.2456,0.2443,0.2449,0.2474,0.2435,0.2434,0.2443,0.2494,0.2505,0.251,0.2464,0.2465,0.2465,0.2495,0,0.2541,0.2548,0.2531,0.2542,0.2542,0.252,0.2524,0.2516,0.2506,0.2506,0.2495,0.2495,0.2478,0.2476,0.2481,0.247,0.2484,0.2467,0.2469,0.2469,0.2473,0.2515,0.2527,0.2556,0.2499,0.25,0.25,0,0.2577,0.2571,0.2582,0.2568,0.2568,0.2572,0.2566,0.2566,0.2556,0.2549,0.2545,0.253,0.2534,0.2516,0.2522,0.2511,0.251,0.2505,0.2506,0.2506,0.2487,0.2518,0.2564,0.2569,0.2506,0.2505,0.2505,0,0.2614,0.261,0.2616,0.2612,0.2596,0.2599,0.2592,0.2582,0.2581,0.2576,0.2575,0.257,0.2569,0.2566,0.2551,0.2539,0.2559,0.2539,0.2553,0.2554,0.2559,0.2559,0.2608,0.2557,0.2557,0.2557,0.2557,0,0.2649,0.2657,0.2633,0.2637,0.2645,0.2625,0.2634,0.2625,0.2617,0.2619,0.2599,0.2602,0.2581,0.2581,0.2569,0.2576,0.2575,0.257,0.2567,0.2572,0.2573,0.2573,0.2571,0.2558,0.2558,0.2558,0.2558,0,0.2694,0.2677,0.2683,0.2666,0.2662,0.2669,0.2655,0.2659,0.2647,0.265,0.265,0.2633,0.2632,0.2616,0.2613,0.2604,0.2617,0.261,0.262,0.2618,0.2634,0.2633,0.2684,0.269,0.2635,0.2636,0.2636,0,0.2717,0.2723,0.2707,0.2707,0.2701,0.2701,0.2699,0.268,0.2679,0.2669,0.2674,0.2672,0.2669,0.2669,0.2657,0.2654,0.2647,0.2665,0.2647,0.2652,0.2649,0.2649,0.265,0.267,0.267,0.2671,0.2671,0,0.2762,0.2754,0.2752,0.2747,0.2745,0.274,0.2734,0.2735,0.2715,0.2715,0.2714,0.2712,0.2708,0.2706,0.2701,0.2695,0.268,0.2677,0.268,0.2687,0.2693,0.2691,0.2632,0.2676,0.2676,0.2675,0.2675,0.2675,0.2797,0.2801,0.2791,0.2789,0.2783,0.2778,0.278,0.2769,0.2768,0.2763,0.2752,0.2753,0.2744,0.2736,0.2731,0.2732,0.2723,0.2727,0.2728,0.273,0.2734,0.2692,0.2731,0.273,0.273,0.273,0.273,0,0.2842,0.2834,0.2833,0.2825,0.2824,0.2809,0.2802,0.2802,0.2803,0.2796,0.2794,0.2793,0.2792,0.2779,0.2776,0.2779,0.2772,0.2779,0.2779,0.2778,0.2741,0.2739,0.2785,0.2785,0.2785,0.2785,0.2785,0.2785,0.2865,0.2871,0.2862,0.2865,0.2857,0.2858,0.2855,0.2851,0.2845,0.2845,0.2843,0.2835,0.2825,0.2822,0.282,0.2816,0.2816,0.2826,0.282,0.2786,0.2781,0.2776,0.2774,0.2826,0.2826,0.2857,0.2857,0.2857]},{"header":{"parameterUnit":"m.s-1","parameterCategory":1,"la1":30.2991,"la2":30.254,"lo1":-89.0895,"lo2":-89.0444,"dy":0.0017,"dx":0.0017,"nx":28,"ny":28,"refTime":"2026-02-26T03:00:00:Z","depth":0,"parameterNumber":3,"parameterNumberName":"V-component_of_WINDS"},"data":[0,0,0,0,0,0,0,0,0,0,0,0,0,0,0,0,0,0,0,0,0,0,0,0,0,0,0,0,0,0,0,0,0,0,0,0,0,0,0,0,0,0,0,0,0,0,0,0,0,0,0,0,0,0,0,0,0,0,5.3863,5.3865,0,5.3987,5.3989,5.399,5.3997,5.3995,5.3994,5.3993,5.4119,5.4124,5.4128,0,0,0,0,0,0,0,0,0,0,0,0,0,5.3633,5.3638,5.3863,5.3865,5.3866,5.3987,5.3989,5.399,5.3997,5.3995,5.3994,5.3992,5.4117,5.4123,5.4129,0,0,0,0,0,0,0,0,0,0,0,0,0,5.3743,5.3639,5.3863,5.3884,5.3887,5.3987,5.3989,5.3991,5.3997,5.3995,5.3993,5.3991,5.4116,5.4122,5.4129,5.4216,0,0,5.4151,5.4154,0,0,0,0,0,0,0,0,5.3737,5.3751,5.388,5.3883,5.3887,5.3974,5.3954,5.4066,5.3998,5.3956,5.3993,5.399,5.4073,5.4083,5.4111,5.4222,5.4227,5.4152,5.4156,5.4159,5.4161,0,0,0,0,0,0,0,5.3729,5.3746,5.3912,5.3881,5.3886,5.3888,5.3901,5.3975,5.4025,5.3959,5.396,5.3975,5.4074,5.4104,5.4114,5.4229,5.4151,5.4158,5.4162,5.4165,5.4419,5.4422,0,0,0,0,0,0,5.3717,5.374,5.3908,5.3916,5.3805,5.3894,5.3909,5.3948,5.4024,5.4033,5.3976,5.3974,5.4093,5.4106,5.4118,5.4227,5.4159,5.4165,5.4169,5.4417,5.442,5.4423,0,0,0,0,0,0,5.3712,5.3732,5.3903,5.3828,5.385,5.39,5.3945,5.3952,5.3982,5.4037,5.4046,5.3998,5.4092,5.4109,5.4192,5.4231,5.4169,5.4175,5.4414,5.4418,5.4421,5.4442,0,0,0,0,0,0,5.3706,5.373,5.3763,5.3829,5.3854,5.3975,5.3947,5.3956,5.3994,5.3993,5.4059,5.4068,5.4092,5.4182,5.4199,5.424,5.4181,5.4411,5.4416,5.442,5.4438,5.4446,5.4453,0,0,0,0,0,5.3697,5.3764,5.3765,5.3785,5.3896,5.3977,5.3991,5.4017,5.3997,5.4031,5.4067,5.4066,5.4224,5.419,5.421,5.4253,5.4408,5.4414,5.442,5.4435,5.4445,5.4453,0,0,0,0,0,0,5.3701,5.3773,5.3775,5.3864,5.3915,5.3978,5.4022,5.4026,5.4083,5.4079,5.4108,5.4123,5.4207,5.4238,5.4199,5.4342,5.4314,5.4324,5.4319,5.4328,5.4335,5.4327,5.4186,0,0,0,0,0,5.3712,5.3772,5.3831,5.3904,5.3929,5.3971,5.4007,5.4023,5.4076,5.4097,5.4138,5.419,5.4252,5.4291,5.4351,5.4442,5.4458,5.4482,5.4489,5.4495,5.4504,5.4557,5.4569,5.4442,5.4441,5.4441,0,0,5.3736,5.3782,5.3818,5.3906,5.3947,5.4009,5.3989,5.4054,5.4101,5.4107,5.4189,5.4221,5.4281,5.437,5.4411,5.4399,5.4542,5.4502,5.4507,5.4512,5.4564,5.4576,5.4587,5.4445,5.4445,5.4444,0,0,5.3811,5.3851,5.3918,5.396,5.4022,5.405,5.4066,5.4129,5.4151,5.4234,5.4241,5.4296,5.44,5.4444,5.4479,5.4572,5.4575,5.4591,5.463,5.4681,5.4692,5.4701,5.4736,5.4748,5.4599,5.4599,5.4599,0,5.3833,5.3926,5.3951,5.4018,5.4057,5.4066,5.4135,5.4174,5.4252,5.4279,5.4264,5.4397,5.4437,5.4538,5.4561,5.4588,5.4609,5.4584,5.4688,5.4697,5.4706,5.474,5.4753,5.4601,5.46,5.46,5.46,0,5.395,5.4015,5.4061,5.4138,5.4182,5.4249,5.4285,5.4327,5.4339,5.4369,5.4454,5.4503,5.4574,5.4598,5.461,5.4701,5.4692,5.4682,5.4655,5.472,5.4752,5.4765,5.4603,5.4602,5.4602,5.4602,0,0,5.4031,5.4122,5.4139,5.4175,5.4245,5.4296,5.4363,5.4433,5.4469,5.4523,5.4582,5.4671,5.4663,5.4703,5.472,5.4765,5.4839,5.475,5.4752,5.4767,5.4944,5.4953,5.4967,5.484,5.4843,5.4845,5.494,0,5.4116,5.4237,5.4263,5.4368,5.4429,5.4439,5.4498,5.4548,5.4578,5.4634,5.4666,5.473,5.4714,5.4739,5.4783,5.482,5.4875,5.4813,5.4896,5.4899,5.4883,5.4984,5.4993,5.5081,5.4953,5.4955,5.4957,0,5.423,5.4288,5.44,5.4464,5.449,5.4543,5.461,5.4663,5.4721,5.4739,5.4785,5.4798,5.487,5.4838,5.4938,5.4896,5.4931,5.4955,5.4959,5.4969,5.4933,5.4999,5.5109,5.5123,5.4976,5.4975,5.4973,0,5.4281,5.4386,5.4467,5.4497,5.4574,5.4611,5.4644,5.47,5.474,5.4799,5.4826,5.4891,5.4928,5.4979,5.5009,5.4983,5.5108,5.5079,5.5127,5.5127,5.5154,5.5152,5.5273,5.5174,5.5174,5.5173,5.5173,0,5.4373,5.4442,5.4491,5.4541,5.4619,5.4648,5.4724,5.4757,5.4806,5.4864,5.4876,5.4929,5.4965,5.5024,5.5048,5.5129,5.5144,5.5163,5.5169,5.5163,5.5161,5.5188,5.5183,5.5177,5.5176,5.5175,5.5175,0,5.4443,5.4479,5.4569,5.4634,5.4652,5.4706,5.4762,5.4812,5.4842,5.4914,5.4933,5.498,5.505,5.5085,5.5172,5.5189,5.5281,5.5282,5.5262,5.5265,5.5312,5.5308,5.5456,5.5478,5.5362,5.5363,5.5364,0,5.4501,5.4554,5.4626,5.4665,5.47,5.4763,5.4805,5.4836,5.488,5.495,5.4991,5.5062,5.5121,5.5233,5.5275,5.5342,5.5346,5.5394,5.5356,5.535,5.535,5.5347,5.5354,5.5401,5.5402,5.5403,5.5403,0,5.46,5.4616,5.4676,5.4744,5.4794,5.4848,5.4902,5.4934,5.4974,5.5022,5.5094,5.514,5.5229,5.53,5.5371,5.5406,5.5413,5.5415,5.543,5.5425,5.5413,5.5423,5.5282,5.5411,5.5411,5.541,5.541,5.5409,5.4668,5.4716,5.4775,5.4842,5.4886,5.4936,5.4987,5.5024,5.5084,5.516,5.5175,5.5252,5.531,5.5405,5.5443,5.5504,5.5494,5.5515,5.5521,5.5527,5.553,5.5401,5.5517,5.5517,5.5516,5.5516,5.5516,0,5.477,5.4808,5.487,5.4945,5.4999,5.5,5.506,5.5105,5.5173,5.5226,5.5284,5.5368,5.5437,5.5485,5.5556,5.5596,5.5601,5.5614,5.5612,5.5621,5.5534,5.5515,5.5609,5.5609,5.5609,5.5609,5.5609,5.5609,5.4829,5.4912,5.4935,5.504,5.5078,5.5155,5.5189,5.5236,5.5279,5.5373,5.5431,5.5462,5.5514,5.5589,5.5653,5.5665,5.5692,5.5705,5.5718,5.5636,5.5626,5.5617,5.56,5.571,5.571,5.58,5.5801,5.5801]}]]